www.pogodaiklimat.ru

Погода и климат >> Архив погоды >> Россия >> Ненецкий АО >> Амдерма


ПОГОДА в Амдерме

  • Прогноз погоды в Амдерме
  • Монитор погоды в Амдерме
  • Климат города

АРХИВ ПОГОДЫ в Амдерме

Время (UTC), дата Ветер
(напр.,м/с)
 
Видим.   Явления Облачность Т
(С)
Тd
(С)
f
(%)
Тe
(С)
Тes
(С)
Комфортность P
(гПа)
Po
(гПа)
Тmin
(С)
Tmax
(С)
R
(мм)
R24
(мм)
S
(см)
03 10.12 Ю 3 10 км {ливн. осадки} 6/0
[Ac trans]
-14.4 -16.1 87 -21 -21 1011.4 -15.7 2 12
06 10.12 З 5 4000 м слабый ливневой снег 9/8 600 м
[Cb cap Ac trans]
-11.7 -13.1 89 -20 -20 1011.3
09 10.12 ЮЗ 5 10 км в посл. час ливневой снег 8/4 600 м
[Cb cap Ac trans]
-13.3 -15.0 87 -22 -22 1012.8
12 10.12 ЮЗ 5 4000 м слабый ливневой снег 5/5 600 м
[Cb cap]
-16.4 -17.7 90 -26 -26 1014.0 -11.7
15 10.12 ЮЗ 5 4000 м слабый ливневой снег 5/5 600 м
[Cb cap]
-14.4 -15.5 91 -23 -23 1015.5 -8.6 0.6
18 10.12 ЮЗ 4 10 км слабый ливневой снег 10/10 600 м
[Cb cap]
-13.4 -14.4 92 -21 -21 1017.1
21 10.12 ЮЗ 7 10 км слабый ливневой снег 10/10 600 м
[Cb cap]
-11.8 -12.7 93 -21 -21 1017.7
00 11.12 ЮЗ 8-11
{11}
4000 м слабый ливневой снег {метель} 10/5 600 м
[Cb cap]
-12.4 -14.4 85 -23 -23 1018.7
03 11.12 Ю 8-10
{13}
4000 м слабый ливневой снег {метель} 8/6 600 м
[Cb cap]
-15.5 -16.7 90 -27 -27 1019.4 -15.5 0.6 11
06 11.12 Ю 10-12
{11}
10 км позёмок {ливн. осадки, метель} 9/0
[Ac As]
-16.0 -17.2 90 -28 -28 1019.3
09 11.12 Ю 7-11
{13}
10 км позёмок {метель} 9/3 600 м
[Sc Ac trans]
-15.0 -16.8 86 -25 -25 1019.4
12 11.12 Ю 11-13
{13}
10 км сильный позёмок {метель} 3/3 600 м
[Sc]
-15.9 -17.7 86 -29 -29 1018.0
15 11.12 Ю 10-13
{14}
10 км позёмок {метель} 10/10 600 м
[Sc]
-11.8 -14.3 82 -23 -23 1016.7 -11.5 0.2
18 11.12 Ю 11-14
{15}
10 км сильный позёмок {метель} 10/10 600 м
[Sc]
-10.5 -12.7 84 -22 -22 1016.1
21 11.12 Ю 11-15
{15}
4000 м слабый ливневой снег {метель} 10/10 600 м
[Cb cap]
-11.0 -12.3 90 -22 -22 1015.3
00 12.12 Ю 8-10
{15}
10 км позёмок {ливн. осадки, метель} 10/10 600 м
[Sc]
-9.7 -11.4 87 -19 -19 1015.3
03 12.12 Ю 8-10
{11}
10 км позёмок {метель} 10/10 600 м
[Sc]
-9.1 -10.6 89 -19 -19 1015.0 -11.8 0.3 9
06 12.12 Ю 10-13
{14}
10 км позёмок {метель} 10/10 600 м
[Sc]
-8.2 -10.1 86 -19 -19 1014.4
09 12.12 Ю 8-10
{19}
10 км позёмок {метель} 9/3 600 м
[Sc Ac trans Cc]
-8.9 -10.4 89 -18 -18 1014.6
12 12.12 Ю 11-13
{15}
10 км позёмок {метель} 10/10 600 м
[Sc]
-9.3 -11.4 85 -20 -20 1013.4
15 12.12 Ю 13-20
{20}
1000 м метель 10/10 600 м
[Sc]
-8.6 -9.7 92 -20 -20 1011.2 -7.0
18 12.12 Ю 14-20
{21}
1000 м метель 10/10 600 м
[Sc]
-9.6 -10.8 91 -22 -22 1010.6
21 12.12 Ю 14-19
{22}
1000 м метель 9/9 600 м
[Sc]
-11.0 -12.3 90 -23 -23 1010.5
00 13.12 Ю 5-19
{22}
2000 м метель 10/10 600 м
[Sc]
-10.7 -12.5 87 -19 -19 1009.7
03 13.12 Ю 13-18
{21}
2000 м метель 10/10 600 м
[Sc]
-9.8 -11.5 87 -22 -22 1009.3 -11.6 5
06 13.12 Ю 11-15
{18}
1000 м метель 8/8 600 м
[Sc Ac trans]
-10.2 -11.5 90 -21 -21 1008.6
09 13.12 Ю 11-16
{18}
2000 м метель 9/3 300 м
[Sc Ac trans Cc]
-8.7 -9.8 92 -20 -20 1007.2
12 13.12 Ю 13-18
{19}
2000 м метель 9/3 600 м
[Sc Ac trans]
-7.6 -8.5 93 -19 -19 1005.4
15 13.12 Ю 13-16
{20}
4000 м метель 9/5 600 м
[Sc Ac trans]
-5.9 -7.0 92 -17 -17 1002.6 -5.8
18 13.12 Ю 12-15
{17}
4000 м метель 10/10 300 м
[Sc]
-5.6 -6.7 92 -16 -16 1000.2
21 13.12 Ю 11-14
{18}
4000 м метель 10/10 300 м
[Sc]
-5.3 -6.3 93 -16 -16 997.3
00 14.12 Ю 13-17
{18}
4000 м метель 10/10 300 м
[Sc]
-4.4 -5.7 91 -15 -15 994.4
03 14.12 Ю 9-12
{17}
4000 м метель {ливн. осадки} 10/10 300 м
[Sc]
-4.1 -4.6 96 -13 -13 992.4 -6.0 0.3 7
06 14.12 Ю 10-14
{15}
4000 м слабый снег {ливн. осадки} 10/10 300 м
[]
-3.8 -4.6 94 -13 -13 991.4
09 14.12 Ю 11-11
{14}
4000 м слабый снег {метель} 10/0
[As op]
-3.1 -3.8 95 -13 -13 991.2
12 14.12 ЮЗ 10-14
{15}
10 км сильный позёмок {снег, метель} 8/8 600 м
[Sc]
-3.4 -4.5 92 -13 -13 993.4
15 14.12 Ю 12-16
{16}
4000 м метель 9/9 600 м
[Sc]
-3.4 -4.5 92 -13 -13 994.3 -2.4 0.5
18 14.12 ЮЗ 13-18
{17}
4000 м метель {ливн. осадки} 10/10 600 м
[Sc]
-2.6 -3.6 93 -13 -13 994.4
21 14.12 ЮЗ 14-21
{18}
4000 м слабый ливневой снег {метель} 9/8 600 м
[Cb cap Ac trans]
-2.4 -3.3 94 -13 -13 994.4
00 15.12 Ю 19-19
{23}
2000 м метель {ливн. осадки} 10/10 600 м
[Sc]
-1.9 -3.0 92 -13 -13 994.6
03 15.12 ЮЗ 17-17
{21}
1000 м слабый ливневой снег {метель} 10/10 600 м
[Cb cap]
-1.7 -2.5 94 -13 -13 996.4 -3.4 0.5 7
06 15.12 ЮЗ 14-18
{22}
1000 м слабый ливневой снег {метель} 9/8 600 м
[Cb cap Ac trans]
-1.8 -2.3 96 -12 -12 998.0
09 15.12 ЮЗ 13-17
{19}
2000 м слабый ливневой снег {метель} 10/10 300 м
[Cb cap]
-2.6 -3.2 96 -13 -13 999.3
12 15.12 ЮЗ 12-16
{18}
2000 м слабый ливневой снег {метель} 10/10 300 м
[Cb cap]
-2.5 -3.4 94 -12 -12 1001.8
15 15.12 ЮЗ 2-16
{17}
4000 м слабый ливневой снег {метель} 10/10 300 м
[Cb cap]
-2.9 -3.3 97 -7 -7 1003.1 -1.3 0.4
18 15.12 ЮЗ 11-14
{16}
4000 м слабый ливневой снег {метель} 10/10 300 м
[Cb cap]
-3.3 -3.7 97 -13 -13 1005.0
21 15.12 Ю 13-15
{16}
4000 м метель {ливн. осадки} 10/10 300 м
[Sc]
-4.6 -5.5 93 -15 -15 1006.1
00 16.12 ЮЗ 11-14
{16}
10 км метель {ливн. осадки} 3/3 600 м
[Sc]
-6.9 -7.8 93 -17 -17 1006.6
03 16.12 ЮЗ 2
{15}
10 км {метель} 10/10 600 м
[Sc]
-5.4 -6.8 90 -10 -10 1006.0 -7.2 0.2 6
06 16.12 Ю 8-10
{11}
4000 м слабый ливневой снег {метель} 10/10 600 м
[Cb cap]
-4.5 -5.1 96 -13 -13 1004.3
09 16.12 Ю 11-15
{15}
2000 м слабый ливневой снег {метель} 10/10 600 м
[Cb cap]
-2.7 -3.0 98 -12 -12 1002.3
12 16.12 ЮЗ 13-17
{18}
2000 м слабый ливневой снег {метель} 10/10 600 м
[Cb cap]
-1.3 -1.5 99 -11 -11 1002.4
15 16.12 ЮЗ 14-20
{20}
1000 м слабый ливневой снег {метель} 10/10 300 м
[Cb cap]
-0.7 -1.1 97 -11 -11 1002.9 -0.5 1
18 16.12 ЮЗ 13-18
{21}
1000 м ливневой снег {метель} 10/10 300 м
[Cb cap]
-0.6 -1.0 97 -10 -10 1004.1
21 16.12 ЮЗ 11-13
{17}
10 км {ливн. осадки, метель} 10/10 300 м
[Sc]
-0.8 -1.8 93 -10 -10 1005.6

 

Местоположение метеостанции Амдерма (Ненецкий АО, Россия): широта 69.77 долгота 61.68 высота над уровнем моря 48 м.

В архиве по умолчанию представлена погода в Амдерме за последнюю неделю. Архивные данные за месяц целиком и за предыдущие месяцы, начиная с января 2011 года, Вы можете получить, выбрав интересующий диапазон дат из раскрывающегося списка и нажав кнопку "Ввод!".

Внимание! Время в таблицах - всемирное. Для получения местного времени необходимо прибавить поправку, которая в Амдерме равна 3 ч.

Смотрите также архив погоды в соседних городах и на ближайших метеорологических станциях:

Погода на Мысе Белый Нос (Ненецкий АО, Россия) (60 км)
Погода в Имени Федорова (Ненецкий АО, Россия) (124 км)
Погода в Усть-Каре (Ненецкий АО, Россия) (139 км)
Погода в Варандее (Ненецкий АО, Россия) (179 км)
Погода в Inari Angeli (Финляндия) (186 км)
Погода в Марресаля (Ямало-Ненецкий АО, Россия) (197 км)
Погода в Воркуте (Коми, Россия) (271 км)
Погода на Мысе Константиновском (Ненецкий АО, Россия) (279 км)
Погода в Хорей-Вере (Ненецкий АО, Россия) (300 км)
Погода в Елецкой (Коми, Россия) (318 км)

Пояснения к столбцам:

Ветер - указаны скорость ветра в м/с - средняя за 10 мин, порывы в срок и между сроками (в фигурных скобках) и направление, откуда дует ветер: С - северный, СВ - северо-восточный, В - восточный, ЮВ - юго-восточный, Ю - южный, ЮЗ - юго-западный, З - западный, СЗ - северо-западный.
Видимость - горизонтальная дальность видимости в метрах или километрах. При видимости от 1 до 10 км при отсутствии осадков обычно наблюдается дымка, при ухудшении видимости до 1 км и менее - туман. В сухую погоду видимость может ухудшаться дымом, пылью или мглою.
Явления - указаны атмосферные явления, наблюдавшиеся в срок или в последний час перед сроком; фигурными скобками обозначены явления, наблюдавшиеся между сроками (за 1-3 часа до срока); квадратными скобками обозначены град или гололедные отложения с указанием их диаметра в мм.
Облачность - указаны через наклонную черту общая и нижняя облачность в баллах и высота нижней границы облаков в метрах; квадратными скобками обозначены формы облаков: Ci - перистые, Cs - перисто-слоистые, Cc - перисто-кучевые, Ac - высококучевые, As - высокослоистые, Sc - слоисто-кучевые, Ns - слоисто-дождевые, Cu - кучевые, Cb - кучево-дождевые. Подробнее классификацию облаков см. в Атласе облаков (PDF).
T - Температура воздуха - температура, измеренная на высоте 2 м над землей.
Td - Температура точки росы - температура, при понижении до которой содержащийся в воздухе водяной пар достигнет насыщения.
f - Относительная влажность воздуха - влажноcть воздуха, измеренная на высоте 2 м над землей.
Te - Эффективная температура - температура, которую ощущает одетый по сезону человек в тени. Характеристика душности погоды. При расчете учитывается влияние влажности воздуха и скорости ветра на теплоощущения человека.
Tes - Эффективная температура на солнце - температура, которую ощущает человек, с поправкой на солнечный нагрев. Характеристика знойности погоды. Зависит от высоты солнца над горизонтом, облачности и скорости ветра. Ночью, в пасмурную погоду, а также при ветре 12 м/с и более поправка равна нулю.
P - Атмосферное давление - приведенное к уровню моря атмосферное давление.
Po - Атмосферное давление - измеренное на уровне метеостанции атмосферное давление.
Tmin - Минимальная температура - минимум температуры воздуха на высоте 2 м над землей.
Tmax - Максимальная температура - максимум температуры воздуха на высоте 2 м над землей.
R - Количество осадков - Количество выпавших осадков за период времени, мм. При наведении курсора мыши на число - период времени, за который выпало указанное количество осадков.
R24 - Количество осадков - Количество выпавших осадков за 24 часа, мм.
S - Снежный покров - Высота снежного покрова, см. При наведении курсора мыши на число - состояние снежного покрова и степень покрытия местности в баллах.